Wind_Speed
2 3 4 5 5 5 6 6 6 7 7 8 8 9 9 9 9 9 9 8 7 7 6 6 6 6 7 9 10 10 7 5 8 11 8 6 9 12 12 12 12 11 11 10 11 7 4 5 6 8 5 1 2 1 1 0 2 2 2 1 4 3 4 5 6 5 4 2 1 3 4 8 5 2 1 5 11 8 9 9 7 12 12 15 21 27 28 26
3 3 4 4 5 5 5 6 7 8 9 9 10 10 10 10 10 9 9 8 7 7 6 6 5 6 7 8 8 8 4 5 9 11 9 8 11 13 11 11 11 10 9 8 10 7 4 4 5 7 5 1 2 1 1 1 2 3 3 1 4 5 5 6 6 5 3 2 4 4 5 7 3 3 2 5 5 6 11 8 8 14 13 17 22 24 24 24
3 4 4 4 5 5 6 7 8 9 9 10 10 10 10 10 10 9 8 8 7 6 5 5 5 6 7 7 7 7 2 4 6 6 8 11 12 12 11 11 10 8 8 7 8 6 2 2 1 4 4 1 2 1 0 1 1 2 3 2 6 6 5 5 6 6 4 5 8 5 5 9 5 3 2 6 7 8 9 4 5 11 11 12 15 19 21 20
4 4 5 5 5 6 7 8 9 9 10 10 10 10 9 9 9 8 8 7 6 5 5 5 5 5 5 6 6 5 0 4 3 4 9 12 12 13 11 11 9 7 7 8 7 5 2 1 1 3 4 0 3 1 1 2 1 2 3 4 6 4 3 6 6 4 2 6 9 5 6 8 5 6 4 5 8 7 4 3 3 8 12 12 11 15 18 19
5 5 6 6 7 8 9 9 10 10 10 10 10 10 10 10 9 9 7 6 5 4 4 3 3 3 3 5 6 4 1 3 3 6 11 11 13 14 12 11 8 6 8 8 6 3 2 2 4 5 4 0 2 1 2 3 2 2 3 5 4 4 3 5 2 3 4 7 8 6 7 5 3 8 8 7 8 3 4 4 5 7 8 10 10 14 18 19
6 6 6 7 8 9 10 10 11 10 10 10 11 12 11 10 9 7 6 6 4 3 3 2 2 2 3 3 3 1 3 2 5 9 11 10 14 16 14 12 6 7 9 7 4 2 2 3 4 3 3 1 1 2 4 4 2 2 4 3 1 5 3 3 3 3 4 9 7 5 5 5 7 9 9 11 9 3 4 4 9 11 12 16 17 17 16 15
5 6 7 8 9 10 11 11 10 9 10 12 13 11 10 9 8 7 5 4 4 3 2 1 0 1 2 1 4 5 6 2 7 11 11 12 15 16 16 12 6 8 8 5 6 3 3 5 3 3 3 1 1 2 3 4 3 2 4 5 2 3 1 3 5 4 8 10 5 6 8 6 8 8 6 11 8 6 6 11 15 16 19 23 20 17 16 16
4 5 7 8 9 10 11 11 9 9 11 13 12 10 10 10 9 8 6 2 3 3 2 2 0 1 2 1 4 5 4 2 9 12 12 14 16 17 17 10 5 8 6 6 6 0 3 4 2 3 3 1 3 0 1 3 4 2 3 4 2 2 3 5 7 9 13 10 8 14 13 9 9 9 7 8 7 6 7 14 17 18 20 20 16 16 17 17
3 5 7 8 9 10 12 11 9 10 13 14 12 11 11 11 11 11 8 3 2 3 2 2 1 1 1 1 5 4 3 5 9 11 13 16 17 18 15 9 6 8 5 5 6 2 2 1 1 2 2 2 3 1 3 2 2 3 3 2 1 4 3 5 8 9 11 6 10 17 11 7 7 8 8 6 6 5 7 12 13 15 16 13 12 14 16 15
3 6 8 9 9 11 13 12 10 11 14 14 11 11 11 12 12 11 9 5 2 3 3 3 2 2 1 2 6 4 3 8 10 11 13 16 21 20 13 9 7 8 6 5 7 6 3 2 2 2 4 2 1 0 2 2 2 3 2 2 3 4 2 4 7 6 7 4 7 14 8 4 5 4 6 3 5 5 9 13 11 13 13 10 10 12 15 15
4 7 8 9 10 11 12 13 11 11 14 13 10 9 11 12 12 10 7 5 4 4 4 4 4 6 9 7 7 4 5 10 10 12 13 18 27 23 11 8 6 6 6 5 6 5 4 1 2 3 2 0 1 1 0 2 2 2 2 4 4 5 4 6 8 6 5 4 6 14 10 7 10 5 5 3 4 5 11 13 11 12 10 9 9 10 14 15
5 7 8 9 9 10 11 12 12 11 12 12 8 8 10 11 11 8 5 5 5 5 5 5 7 8 11 11 6 2 6 11 11 12 14 20 29 18 7 8 4 4 5 4 4 3 4 2 3 4 1 1 1 1 1 3 1 1 2 1 5 7 5 4 4 5 4 3 6 9 7 7 9 4 4 5 3 6 13 12 10 10 8 8 8 8 11 14
5 7 8 8 8 10 10 11 11 11 11 10 7 7 10 10 9 7 6 6 6 6 5 5 6 4 6 5 2 5 8 12 14 14 16 23 25 10 7 9 3 2 4 3 4 4 4 3 3 3 2 3 0 1 3 2 2 1 3 2 3 7 4 3 1 3 5 4 8 2 1 3 4 3 4 3 3 9 13 9 8 8 6 7 6 6 8 12
5 6 7 8 8 9 10 10 11 11 11 9 6 7 8 8 8 8 8 8 8 7 7 6 4 3 5 2 0 9 12 13 16 19 20 25 22 9 8 9 2 2 3 3 4 4 4 2 3 4 2 3 1 1 4 5 4 1 2 2 2 3 2 5 4 4 4 1 1 2 1 3 1 2 4 2 1 9 12 7 7 6 5 6 5 6 6 9
5 6 7 8 9 9 10 11 10 11 10 7 6 8 8 7 9 9 9 9 9 8 7 7 5 4 5 2 2 11 15 16 19 23 23 24 18 9 9 8 4 3 2 3 4 3 5 3 5 4 2 3 5 4 3 4 4 3 2 2 3 2 4 6 6 5 2 1 6 4 2 1 3 5 3 3 2 8 11 6 6 6 5 5 4 5 5 7
6 7 8 9 9 10 10 11 10 10 8 6 9 12 11 8 8 10 11 10 10 9 6 5 5 5 5 1 5 10 13 14 18 23 23 18 12 8 10 6 4 5 3 3 4 3 6 7 5 3 3 6 6 3 4 4 4 4 3 1 3 2 4 4 3 7 5 2 7 5 4 2 2 4 3 4 3 7 11 6 6 6 5 5 4 4 4 5
7 8 9 9 10 10 11 11 10 9 7 5 10 15 16 11 7 7 8 8 10 10 10 8 6 5 5 3 5 7 9 12 17 24 25 15 9 10 10 4 4 6 4 5 7 4 6 6 1 1 4 5 3 3 4 4 4 4 4 2 2 1 2 4 2 7 10 5 5 7 6 3 2 5 5 4 4 7 9 7 6 5 4 4 4 4 4 4
9 9 9 10 10 11 11 11 10 8 5 3 7 11 16 16 12 9 6 3 2 5 8 11 8 4 3 6 4 8 13 13 16 24 26 16 8 11 12 5 4 6 5 5 7 6 5 4 2 2 5 5 5 6 4 1 1 2 3 1 3 3 1 3 4 5 8 8 6 7 7 5 4 5 5 3 3 6 8 6 5 5 4 4 4 4 4 4
9 10 10 10 11 11 11 11 10 7 4 2 7 5 6 10 13 16 18 14 5 4 3 5 6 4 2 5 6 12 13 10 14 24 29 20 8 7 11 8 5 6 5 3 5 6 4 4 6 4 5 6 5 2 3 4 4 3 3 3 2 3 4 4 2 3 5 9 8 5 6 5 4 4 4 3 3 6 6 5 4 4 4 4 4 4 4 4
10 10 10 10 10 10 10 9 8 6 4 1 8 5 1 3 6 8 14 15 5 3 3 1 1 2 1 4 8 15 11 6 11 21 31 25 9 5 10 9 7 7 5 1 2 4 3 6 5 2 4 6 5 4 5 3 3 3 2 2 3 3 3 4 1 3 3 7 6 5 7 5 4 3 3 3 4 5 6 5 4 4 4 4 4 4 5 4
9 9 9 10 9 9 9 7 7 5 3 2 8 5 2 3 4 1 2 6 2 3 5 0 1 1 2 3 9 13 6 4 9 19 31 24 7 5 7 7 7 6 4 1 1 4 5 7 3 4 5 5 4 2 3 2 2 1 3 2 2 1 2 3 1 5 4 6 3 4 7 4 2 3 3 4 4 4 6 7 6 6 5 4 5 5 5 4
9 9 9 9 8 8 6 5 5 4 3 2 7 5 3 4 6 7 5 4 3 5 5 3 4 3 3 2 9 9 3 6 10 17 29 22 8 5 3 5 8 3 5 3 2 5 6 5 6 7 3 2 3 4 4 4 4 4 2 3 2 1 2 3 1 6 6 4 3 3 6 3 1 2 4 4 3 3 5 6 6 8 7 5 6 6 6 5
8 9 10 10 8 7 4 2 3 3 2 4 7 7 6 7 9 9 5 5 1 4 4 5 4 4 5 4 10 9 6 7 5 12 25 18 6 4 3 6 7 4 6 7 5 4 4 3 7 5 1 4 5 8 8 6 4 4 4 4 1 3 2 2 3 5 6 4 6 6 5 2 0 1 4 4 2 2 4 5 4 6 7 7 8 7 7 8
6 8 11 11 8 5 2 1 2 3 5 7 9 9 8 9 10 7 4 4 2 2 1 1 2 2 2 3 10 6 4 4 1 10 21 13 4 3 4 4 5 5 5 7 9 8 4 4 5 5 5 6 5 8 9 6 5 3 2 4 0 4 1 3 3 1 4 5 6 7 4 0 2 3 4 2 1 2 3 4 4 5 6 5 6 6 7 8
5 8 12 12 8 2 3 2 2 5 7 7 8 8 8 8 7 5 4 4 3 3 2 1 1 3 3 6 12 3 3 4 3 9 17 11 4 2 3 1 4 5 1 3 9 8 4 4 3 6 7 8 7 6 6 4 4 4 1 4 3 3 4 5 2 1 3 4 2 4 2 3 2 4 5 1 1 4 3 5 7 6 6 5 6 7 8 7
6 8 13 13 7 0 4 2 2 5 4 4 5 6 6 5 6 3 3 4 3 3 4 3 1 7 6 7 11 2 4 4 1 12 19 14 5 2 4 3 3 4 3 3 5 4 2 5 5 6 5 8 8 4 3 2 4 4 2 5 3 2 4 5 2 1 1 2 2 2 1 3 3 4 6 4 4 6 4 5 8 7 7 7 7 8 8 8
5 8 13 11 5 1 3 3 3 4 2 2 4 5 4 4 5 2 3 5 4 3 3 4 2 7 6 7 9 3 3 6 3 13 19 15 8 1 5 4 2 4 1 2 3 1 2 6 7 7 6 7 6 4 3 2 4 2 1 3 1 4 4 4 2 3 2 1 1 2 1 1 3 4 3 5 4 7 7 8 9 8 8 9 9 9 9 9
4 8 12 9 5 2 2 3 4 4 3 4 5 5 5 6 5 2 4 4 3 2 1 3 3 6 6 8 11 6 1 5 2 9 16 16 11 3 5 4 3 3 3 4 3 1 1 5 6 6 7 6 3 3 5 0 1 5 2 3 4 3 1 1 4 2 0 3 3 4 1 1 4 2 2 3 4 7 10 11 11 10 10 10 9 10 10 10
5 8 12 7 2 3 3 3 3 4 5 6 6 6 8 7 4 3 5 3 1 1 1 2 4 5 7 8 9 5 3 4 3 6 13 15 12 6 5 2 4 3 6 6 5 2 0 1 0 3 5 3 2 4 3 2 1 6 2 3 2 3 3 3 4 2 3 4 2 4 2 1 4 2 1 1 4 8 9 9 9 10 10 10 10 10 11 9
6 9 12 7 0 1 2 3 4 6 6 6 7 8 8 5 5 4 2 1 1 2 1 2 3 4 7 7 6 6 6 4 3 5 6 6 9 8 4 1 4 5 6 8 5 1 3 2 1 3 2 2 3 4 2 2 4 6 5 3 4 5 4 3 2 3 5 3 3 4 3 3 2 3 3 3 4 6 6 5 6 8 9 10 10 9 10 9
7 10 13 10 5 2 2 3 4 6 6 7 8 7 5 3 5 6 1 2 1 3 3 4 3 4 7 5 4 5 5 5 6 7 6 4 8 9 5 4 4 5 6 6 5 5 6 5 2 1 1 1 2 2 0 1 3 3 5 3 3 4 4 4 5 4 5 2 5 4 2 3 2 4 4 6 6 4 5 5 6 8 10 10 9 9 9 9
7 9 13 13 9 6 2 3 5 7 7 9 8 4 4 2 3 2 1 3 2 2 2 2 3 4 4 3 4 5 3 4 5 5 4 4 6 5 5 4 2 3 5 3 3 5 3 2 4 4 2 1 4 2 3 5 5 5 5 5 5 3 4 4 4 3 1 4 5 2 2 1 4 5 4 7 8 6 5 6 6 8 9 9 10 10 9 9
7 9 12 14 11 8 6 4 6 8 10 10 6 4 6 5 1 1 3 2 1 2 1 0 3 3 3 4 5 5 2 3 4 5 3 2 4 3 2 4 2 1 1 0 1 4 2 4 6 6 3 3 5 3 2 3 4 5 2 3 4 2 3 2 3 2 2 5 4 0 1 1 4 4 4 7 7 6 5 6 6 7 9 9 10 10 9 9
8 10 12 14 12 8 6 6 8 11 11 8 4 5 6 4 1 1 2 3 1 3 1 1 3 3 4 4 2 3 3 3 3 5 4 3 5 4 3 5 6 3 2 3 2 2 2 3 5 4 2 3 4 2 2 2 2 3 2 4 3 3 3 1 3 1 3 6 5 2 0 3 3 3 5 6 5 4 5 5 6 7 8 8 8 8 9 10
7 12 14 16 15 9 6 6 8 11 9 5 6 6 5 2 3 1 1 3 1 3 2 1 3 4 4 3 3 2 1 1 2 4 5 4 3 3 3 4 5 3 3 3 1 1 2 2 4 3 3 2 3 1 2 3 1 2 2 4 2 2 3 1 2 4 2 3 4 3 2 4 3 3 4 3 4 5 5 6 5 6 7 6 6 7 8 9
5 10 15 18 16 10 5 6 8 9 6 6 8 5 2 4 2 2 2 1 0 1 2 3 4 5 4 4 4 4 3 1 3 4 3 3 1 1 2 3 3 3 3 3 0 0 2 2 4 4 4 1 1 2 1 3 0 1 3 1 2 3 5 2 1 1 3 2 3 2 3 4 3 3 3 2 5 6 6 6 6 6 6 5 7 8 8 9
3 5 12 18 18 10 5 6 8 7 5 7 7 3 2 3 2 2 2 0 0 1 3 1 1 2 2 2 3 6 5 3 3 3 2 1 1 1 2 3 2 2 1 2 1 1 2 2 5 2 2 3 1 0 2 2 2 3 2 1 2 1 3 3 1 4 4 1 4 2 3 5 3 3 4 3 6 8 8 7 7 7 6 6 9 9 9 10
3 2 7 18 19 9 5 7 7 6 6 7 6 3 1 1 1 1 2 1 0 2 5 2 0 1 1 0 3 5 4 3 3 3 2 1 1 1 1 2 1 1 0 1 1 1 3 1 5 2 1 5 3 2 2 4 2 4 2 1 1 2 0 1 2 1 2 2 4 5 5 4 3 4 4 4 7 9 9 7 7 8 8 8 10 10 11 10
1 2 4 15 16 6 5 7 6 6 7 6 3 2 1 1 1 2 2 2 1 3 4 1 0 2 1 2 1 3 3 2 1 2 2 1 1 1 2 1 2 1 2 2 2 1 2 2 3 4 2 4 5 3 1 4 5 3 3 3 3 3 3 1 1 2 1 1 3 4 5 4 6 6 5 7 9 9 8 7 8 11 11 10 10 10 10 9
2 2 2 14 12 5 8 9 7 8 7 4 3 2 1 1 1 1 1 0 0 2 2 2 1 2 1 1 1 1 2 2 1 1 1 0 0 0 1 1 2 3 3 3 3 0 1 2 2 5 3 2 2 1 4 3 1 2 3 3 2 1 1 0 0 1 3 2 2 2 4 6 6 4 6 8 8 8 9 8 9 10 11 11 10 10 10 9
3 3 3 15 9 5 5 12 9 5 4 3 2 2 1 1 1 2 2 1 0 1 2 3 3 2 1 1 0 1 1 2 1 1 0 1 1 0 1 3 3 2 2 3 3 1 0 2 2 3 4 1 3 3 3 4 4 3 1 2 2 1 2 3 2 3 1 2 4 2 3 9 6 4 7 8 7 7 8 9 9 9 10 11 10 10 11 10
6 3 5 13 7 6 7 8 4 3 4 2 2 2 1 2 2 2 2 2 1 1 2 3 3 1 2 1 0 1 1 1 1 1 1 2 2 2 2 3 4 1 1 1 1 1 2 3 1 3 4 4 5 3 1 2 4 4 1 2 4 3 4 5 2 3 1 1 2 3 2 8 6 4 6 6 6 6 6 7 8 9 9 10 9 10 10 10
4 3 5 11 3 4 10 7 3 5 4 0 1 1 2 2 2 1 1 2 1 1 3 2 1 1 1 1 0 1 1 1 1 1 2 2 2 3 4 5 4 2 2 1 2 1 1 3 1 3 4 4 5 4 2 2 3 2 1 1 4 2 3 5 5 3 2 2 2 2 3 8 6 2 4 4 3 4 4 6 8 8 8 8 9 10 9 9
2 3 4 13 5 3 5 4 2 2 1 0 3 2 2 1 2 2 1 1 1 1 2 1 0 1 1 1 2 1 1 1 1 1 2 2 2 2 4 6 4 2 2 1 1 1 0 1 2 2 5 6 6 5 4 4 0 2 3 2 3 4 6 4 3 3 1 5 6 4 5 8 5 2 2 3 4 5 7 7 7 8 9 9 9 9 9 9
4 1 3 13 15 8 4 3 6 5 3 3 4 2 2 2 1 1 1 0 0 2 2 0 1 1 1 1 2 1 1 1 1 1 1 1 3 1 2 5 5 2 2 2 1 1 1 2 3 3 0 2 3 3 3 3 2 2 2 2 3 5 7 4 2 3 3 4 5 6 7 8 5 2 4 5 4 6 8 8 7 7 9 9 9 9 9 9
3 3 2 7 12 10 3 1 5 6 4 5 4 2 2 2 1 1 2 1 0 1 2 1 0 1 2 2 2 1 2 1 1 1 1 2 3 2 1 3 3 2 3 2 1 3 2 1 3 5 6 6 6 7 5 2 2 4 5 5 5 5 6 5 4 3 5 3 3 9 11 12 12 8 7 8 6 7 8 8 8 8 8 9 9 9 9 8
2 2 1 1 3 5 5 4 4 4 3 4 3 0 1 1 2 1 1 1 1 1 1 2 1 1 1 1 1 1 2 2 1 1 2 3 3 3 2 2 2 3 4 3 0 3 3 3 4 6 8 9 8 9 6 2 5 8 8 7 7 6 6 7 6 7 4 3 7 10 8 11 18 13 9 9 7 6 7 8 9 8 8 8 8 9 10 10
2 3 2 1 2 2 2 2 3 5 4 3 3 2 1 1 0 1 1 0 1 1 1 1 2 1 2 2 2 1 1 2 1 2 1 2 3 4 3 1 1 1 3 3 1 3 4 3 4 4 6 10 9 10 9 6 6 8 9 10 10 8 10 12 12 9 8 7 13 9 5 11 16 12 11 11 8 7 8 8 8 7 8 9 9 9 10 11
3 3 0 3 3 3 2 2 4 6 5 3 3 2 2 4 3 2 1 1 2 2 1 1 3 1 2 3 3 2 2 0 1 4 2 2 2 1 2 2 1 1 2 2 0 2 3 3 3 2 6 10 10 10 9 7 6 7 9 12 11 10 13 14 13 10 10 14 18 14 14 17 16 14 16 13 8 7 7 7 7 8 10 10 9 10 11 11
2 3 1 3 4 2 2 3 4 5 4 3 2 1 2 5 4 3 1 2 1 2 0 1 4 2 3 4 5 3 6 6 4 5 4 3 2 2 2 3 2 2 2 2 0 0 1 3 1 2 4 9 7 5 3 4 5 8 11 12 11 11 11 11 10 8 8 13 17 16 16 18 16 14 14 11 7 6 6 8 9 10 10 10 9 10 11 11
4 5 6 7 4 2 2 2 3 4 2 2 2 3 2 4 6 3 1 2 3 3 2 3 3 2 2 3 4 6 7 7 7 8 8 6 3 4 3 2 4 2 1 1 1 0 1 2 2 5 3 7 5 6 6 5 6 10 16 17 14 11 8 7 6 7 9 11 14 11 10 14 13 7 5 7 7 6 8 11 11 10 9 9 10 11 11 11
7 5 5 7 4 2 1 2 3 3 2 1 3 4 2 4 6 4 2 1 2 3 4 6 5 3 1 2 6 8 6 7 7 6 6 5 3 3 3 3 4 4 3 3 0 0 2 1 1 3 2 6 5 5 6 7 8 9 12 11 9 8 7 7 5 8 11 11 8 8 10 11 7 2 3 7 7 8 10 10 10 10 10 8 9 10 11 12
Wind_Direction
325 336 341 348 352 352 348 346 346 343 342 335 332 329 326 326 321 318 312 308 305 303 305 300 305 309 314 325 329 346 14 92 92 68 62 31 7 357 348 338 335 337 340 341 350 358 9 25 16 18 41 91 25 322 310 164 121 93 127 189 239 199 194 193 189 200 180 228 153 15 7 114 118 339 116 50 37 53 59 40 48 51 57 87 107 124 129 133
327 340 348 355 351 348 344 343 343 341 340 335 334 331 328 326 321 318 311 306 302 301 304 301 308 306 313 323 321 342 15 117 84 62 43 12 1 352 341 339 337 337 345 344 351 7 29 359 351 24 46 75 342 322 328 285 135 128 135 169 235 201 207 202 187 204 186 169 119 62 32 85 91 301 35 65 24 39 68 43 58 74 72 88 105 118 123 128
342 347 351 351 345 346 344 345 344 339 337 333 331 327 324 321 316 312 307 302 299 298 300 302 308 307 316 315 317 342 4 139 73 41 11 2 359 352 345 340 338 342 351 345 344 354 12 314 325 54 57 45 306 331 356 293 201 164 133 216 247 207 226 237 208 225 204 144 114 89 62 61 23 334 44 104 82 49 73 63 78 99 104 102 106 115 119 116
351 350 351 353 352 353 350 347 341 335 332 328 325 322 317 313 310 306 299 295 294 292 290 301 309 312 316 310 321 331 108 97 33 334 353 2 2 358 348 338 338 344 349 346 343 341 326 335 88 81 78 289 310 14 211 277 216 172 156 212 239 182 232 253 212 220 172 124 114 113 89 75 32 26 34 110 94 49 33 355 73 117 120 115 112 108 104 97
358 359 2 3 0 354 348 342 336 334 331 329 327 321 316 311 306 301 292 283 284 283 281 302 313 318 321 316 321 295 140 63 334 336 356 2 6 1 349 339 339 339 348 349 343 351 355 73 78 58 65 191 312 35 246 276 117 168 225 220 209 150 229 270 181 74 96 107 96 97 86 97 80 41 26 59 85 45 322 342 50 78 92 97 96 91 86 83
8 11 11 4 356 349 343 340 339 339 339 339 335 328 326 323 319 313 297 277 272 274 265 275 302 327 329 331 350 335 115 84 322 349 357 357 2 1 353 340 334 338 343 346 351 37 55 49 62 63 61 60 237 192 248 301 70 184 268 291 229 175 216 307 51 43 98 98 80 92 97 104 95 67 34 54 65 355 343 37 64 62 69 81 82 81 76 73
18 17 11 358 352 349 347 348 348 351 352 347 343 345 352 353 354 346 323 283 253 250 236 212 315 17 341 31 78 58 88 83 339 358 356 356 358 357 355 339 324 333 337 358 8 47 86 50 69 130 92 60 207 201 246 313 15 166 256 312 316 181 213 19 72 71 80 86 82 89 81 64 83 93 53 49 42 355 35 67 71 71 73 77 78 77 76 75
26 16 5 356 356 357 357 359 0 4 0 354 357 8 14 13 13 8 3 321 227 213 199 169 94 37 357 154 122 49 49 332 344 1 356 358 357 354 355 343 322 334 359 29 5 51 108 59 112 138 82 203 181 176 315 341 7 147 215 289 330 56 58 62 81 90 85 87 90 78 71 66 81 94 68 39 23 5 49 68 70 73 70 70 72 75 79 77
29 11 2 2 4 5 6 7 9 10 4 3 8 15 14 14 13 13 17 17 174 173 163 130 91 58 33 109 103 58 354 330 348 356 355 358 354 350 354 357 347 352 31 37 17 71 115 98 188 162 158 196 174 268 348 8 326 204 203 277 353 60 92 91 76 91 96 102 96 84 81 85 85 82 63 31 20 19 54 63 64 70 66 65 67 70 76 75
25 8 8 9 8 7 9 11 13 11 9 9 11 14 11 7 7 9 19 36 98 133 134 120 82 39 41 61 73 66 331 348 357 352 354 355 351 350 356 9 9 14 37 37 41 60 77 164 210 140 147 129 142 219 34 113 179 212 183 78 59 51 83 94 85 109 100 80 97 102 103 43 20 60 80 39 19 34 67 63 58 69 66 64 64 66 72 72
14 9 11 9 8 7 7 12 13 11 10 12 13 11 4 358 2 6 22 51 91 112 117 107 90 82 77 79 80 71 346 353 357 355 353 348 349 351 0 13 12 24 30 41 57 56 47 117 168 92 121 119 121 14 4 193 153 202 144 81 14 23 58 80 103 151 97 54 101 110 108 27 14 50 98 71 31 52 77 70 60 70 68 64 63 63 69 70
8 8 10 7 6 3 4 9 11 10 10 14 17 5 356 354 2 16 47 72 92 104 111 101 109 104 75 71 74 34 345 354 356 353 347 342 346 352 14 11 0 16 12 35 47 29 23 14 84 87 244 157 107 351 172 203 102 101 87 105 318 11 58 69 116 173 79 115 168 118 92 16 15 55 87 75 80 79 77 72 63 68 68 65 66 66 67 71
2 2 5 4 2 360 360 1 5 8 10 18 21 358 352 356 14 42 69 78 90 90 97 104 122 121 58 67 58 13 350 352 356 349 345 343 346 5 35 7 346 353 353 14 18 18 24 357 76 101 152 105 185 279 95 42 49 116 55 86 322 10 35 11 80 148 65 147 198 140 56 338 16 77 108 102 110 87 76 69 68 68 68 67 65 70 65 69
353 356 359 359 358 356 353 354 359 3 11 22 23 1 358 13 41 67 77 79 86 78 82 92 113 113 60 107 13 13 0 3 8 359 352 345 348 17 33 19 28 328 343 13 12 27 29 8 82 79 105 88 290 307 42 10 20 88 11 45 27 11 290 333 24 90 68 93 254 25 242 236 187 143 146 149 81 93 89 77 78 75 73 75 69 77 70 68
342 346 352 354 353 351 347 348 351 358 12 31 38 27 26 44 60 76 83 83 81 76 84 78 80 98 72 88 1 8 5 13 12 3 355 345 348 5 10 31 67 23 33 31 18 32 26 48 76 49 324 6 33 39 14 351 13 34 15 326 355 23 279 320 21 53 74 66 23 37 149 139 174 183 153 106 79 103 102 92 94 93 89 89 80 86 82 76
334 336 342 345 345 345 343 343 343 353 12 51 62 52 54 64 76 85 85 85 78 71 77 56 37 71 85 33 344 4 6 7 1 359 1 355 356 351 350 30 63 34 81 62 42 62 40 53 72 48 12 20 36 52 34 16 355 4 52 324 317 4 322 319 33 26 25 108 25 28 139 133 167 166 104 91 123 114 107 110 111 107 106 103 99 97 94 87
334 329 330 335 338 340 338 338 337 345 9 80 82 63 62 64 80 99 85 78 73 62 61 39 13 68 75 355 351 353 342 348 351 358 5 9 18 11 10 44 20 23 86 68 45 46 30 37 61 48 46 36 18 47 48 13 330 336 25 29 312 293 314 310 302 10 23 71 37 36 101 129 121 124 100 99 138 118 113 128 126 120 117 106 105 97 94 100
332 326 326 330 333 335 335 334 332 338 2 110 114 77 70 67 70 78 55 40 30 28 44 25 21 83 26 350 350 317 316 329 347 359 7 15 30 27 31 41 6 26 61 38 29 27 15 23 50 51 26 16 14 48 77 233 246 300 318 332 321 310 252 299 303 344 28 60 54 51 85 99 89 95 90 87 123 119 118 130 127 124 123 116 115 110 110 112
331 326 324 327 330 333 333 331 330 332 346 130 160 140 85 68 64 61 50 51 49 33 40 346 17 115 279 314 312 322 321 324 352 3 7 8 3 18 30 30 24 46 52 23 13 15 19 30 39 39 1 347 347 29 163 189 179 216 259 200 234 292 286 282 302 345 61 69 38 49 101 115 106 94 99 91 95 112 116 122 124 129 132 133 129 131 141 136
330 325 321 326 328 332 334 329 330 330 344 133 171 171 106 58 47 38 36 47 64 82 106 259 8 107 329 312 325 346 350 339 4 8 5 1 343 355 18 16 26 47 50 53 350 359 60 61 39 11 304 291 295 273 214 186 172 200 183 166 225 235 303 314 325 340 65 86 25 51 101 104 109 116 135 122 106 118 130 135 142 155 154 158 158 158 164 163
336 332 327 330 331 335 334 326 333 344 13 130 172 161 157 146 86 135 8 40 28 43 74 56 22 66 335 318 339 357 9 340 359 7 4 1 356 13 3 10 38 36 3 329 327 353 57 64 6 298 270 255 298 302 183 127 73 71 134 119 359 208 276 334 57 342 10 93 56 80 96 74 97 143 171 147 143 158 163 158 163 177 177 177 174 173 177 174
351 347 340 338 334 337 330 322 345 3 36 132 162 134 137 149 125 152 145 83 12 14 47 22 27 16 330 4 358 0 41 3 353 358 1 2 19 35 2 33 59 33 342 12 34 12 46 45 328 300 251 174 27 35 78 72 68 48 55 97 38 322 309 311 347 6 14 92 140 138 97 61 26 171 194 191 192 202 189 183 182 179 177 186 187 183 181 177
1 1 356 345 334 334 317 313 359 19 60 143 142 111 115 125 137 153 114 96 59 360 24 26 44 9 349 25 3 2 51 30 347 340 355 2 20 48 62 49 55 40 13 39 73 65 59 352 325 323 139 110 31 22 43 43 50 48 46 79 6 324 34 315 320 18 21 66 140 139 96 78 342 175 217 243 254 209 201 208 206 188 187 193 193 188 184 183
356 4 1 351 337 326 271 165 38 75 92 121 118 109 130 132 145 152 88 86 81 355 347 350 134 62 7 358 352 3 78 48 24 338 353 10 17 25 73 73 62 54 36 57 78 85 62 311 330 25 53 79 55 24 34 33 11 1 79 104 35 311 313 248 281 47 29 36 118 124 73 134 194 199 229 291 30 191 193 193 209 219 215 203 193 197 197 193
334 346 353 350 343 316 184 148 80 103 96 103 109 118 133 135 154 146 84 72 30 327 327 322 143 26 353 345 350 356 113 40 66 354 354 13 10 359 54 79 74 57 207 85 71 79 45 332 14 42 32 49 63 37 24 29 7 341 262 165 186 276 276 269 294 77 32 358 187 141 41 294 240 218 226 223 189 213 202 195 211 221 215 203 200 205 207 206
320 331 344 347 352 113 180 179 106 120 95 88 116 136 138 142 165 142 80 65 22 307 343 2 22 3 347 343 343 348 72 5 344 13 8 10 358 131 60 349 41 52 199 149 74 90 21 348 40 63 47 44 51 43 4 47 51 352 254 174 175 275 282 271 264 137 93 289 240 138 132 269 288 249 221 192 212 231 222 217 222 221 213 208 208 207 206 208
328 334 343 349 9 63 201 198 160 148 114 118 137 147 143 135 151 133 56 45 3 287 345 338 329 7 354 341 346 66 66 307 313 17 10 6 349 99 67 10 26 23 291 115 59 63 340 353 22 39 42 41 41 19 325 64 80 308 259 113 317 305 287 263 183 154 199 181 26 25 121 262 286 260 200 163 206 244 238 232 229 223 218 215 214 212 209 208
353 348 346 352 25 51 166 163 158 150 130 150 145 140 138 129 142 115 70 72 336 310 28 313 332 8 351 355 16 73 102 310 20 357 350 11 12 37 71 61 108 13 345 105 117 249 346 8 13 28 36 35 31 304 288 77 116 263 279 38 313 288 215 172 115 119 232 76 11 303 129 68 278 288 73 138 216 250 241 232 228 221 218 217 217 216 212 212
18 2 353 351 37 75 115 141 146 140 131 140 134 133 140 128 116 64 72 114 313 359 155 322 354 348 347 9 18 33 11 8 70 321 340 18 21 36 76 78 113 57 17 86 130 208 67 3 148 84 48 4 288 276 265 129 271 283 323 52 24 47 68 76 95 89 43 56 333 273 151 125 278 274 100 161 234 247 241 233 227 220 218 216 216 217 215 215
30 16 12 12 79 111 141 138 119 135 132 132 140 143 141 112 68 65 71 202 342 335 276 16 10 337 5 27 4 1 26 17 341 337 352 12 7 26 77 76 86 75 26 46 71 305 315 314 169 111 46 300 276 286 240 182 271 310 4 38 48 37 31 43 58 80 60 14 268 244 178 151 295 275 199 195 224 221 219 229 228 220 220 219 217 218 216 214
38 27 28 34 48 50 174 152 119 138 136 135 147 140 121 67 58 93 142 260 334 336 6 17 351 12 30 42 5 356 20 353 339 11 16 358 6 21 37 18 38 56 21 17 15 342 348 7 357 281 294 328 351 321 274 301 305 11 27 22 41 9 2 20 357 36 63 304 252 243 239 161 208 268 224 220 236 206 192 215 222 221 223 222 218 218 216 214
42 33 31 33 40 42 65 147 146 141 139 140 140 107 86 45 29 97 274 318 341 330 21 345 314 16 26 32 20 348 349 352 359 40 32 16 30 34 46 31 354 32 18 344 342 349 358 355 323 316 295 36 35 10 347 351 2 29 29 37 55 11 4 16 336 3 77 253 237 242 337 188 223 253 222 222 234 218 207 217 224 227 225 223 219 217 216 213
47 37 30 28 35 43 61 116 147 145 147 145 122 54 75 81 29 239 286 329 11 324 32 25 322 355 11 31 13 336 1 6 356 34 45 69 55 35 60 49 31 54 29 350 19 5 340 307 339 3 346 14 59 69 352 340 357 9 34 80 86 83 42 348 292 340 301 270 260 108 21 271 276 278 220 216 225 220 222 227 233 235 229 226 220 216 216 215
57 44 33 28 35 47 69 108 140 148 149 138 87 45 68 79 225 214 306 278 287 343 26 54 335 350 33 53 348 319 37 21 360 35 18 29 44 7 347 11 18 45 80 64 50 61 63 318 342 16 330 360 51 135 170 190 314 323 164 121 106 138 121 239 236 240 285 290 300 331 72 207 258 275 220 221 245 252 249 243 243 245 237 230 226 222 221 221
70 47 36 29 32 44 77 115 140 150 148 105 63 63 89 152 230 181 258 257 284 338 325 2 35 38 16 355 333 340 60 5 28 53 22 27 60 5 338 337 355 30 72 57 335 82 94 253 279 297 274 12 13 271 140 109 349 297 132 85 32 184 144 116 194 190 215 310 304 303 250 214 221 247 237 248 280 281 271 266 265 259 247 229 230 233 225 225
97 46 36 28 26 36 76 127 143 150 139 85 66 63 144 193 201 169 201 260 40 315 314 340 42 53 351 316 342 350 342 4 49 57 28 33 88 356 330 279 323 27 88 113 184 29 74 263 284 324 320 347 339 295 58 81 330 348 46 33 264 181 128 100 300 347 67 39 286 283 272 291 320 298 292 315 288 280 272 267 266 260 256 237 233 236 229 228
145 54 38 24 19 28 79 136 152 148 105 77 84 100 205 197 163 170 191 32 105 107 76 39 7 41 346 314 325 329 340 9 36 49 48 24 28 7 330 284 302 37 137 149 166 178 124 271 288 348 351 287 246 66 2 17 114 88 48 259 248 79 91 100 34 359 33 354 280 301 274 291 334 306 313 324 273 267 257 250 259 263 255 242 240 239 234 232
183 116 46 19 11 21 85 124 139 126 87 67 80 122 176 157 128 183 177 142 176 66 76 107 254 87 161 223 307 312 346 9 2 37 72 7 13 120 337 295 272 67 5 128 85 79 105 343 295 262 229 296 336 74 323 326 42 101 125 217 81 84 356 40 61 351 359 300 289 308 294 269 213 229 279 259 237 249 249 237 244 251 242 236 241 243 241 240
160 122 42 6 5 34 92 122 122 78 72 77 86 137 164 157 239 222 181 143 126 79 78 151 251 57 125 135 248 300 352 32 4 49 95 36 9 131 112 295 271 344 18 83 123 237 110 105 287 270 241 307 357 61 216 306 342 22 41 12 36 125 171 196 68 167 171 240 282 317 322 277 226 214 212 222 226 232 236 231 231 239 238 234 237 240 240 239
58 99 11 353 6 86 87 79 75 48 64 110 156 156 108 154 242 276 233 175 135 100 96 179 155 58 49 165 200 296 18 66 53 56 95 101 356 261 131 163 263 308 344 39 87 121 55 104 249 288 326 3 344 229 176 183 281 353 19 6 355 13 112 122 258 147 130 157 200 310 308 270 246 208 194 219 230 221 218 221 228 235 237 237 237 239 240 238
58 96 332 350 4 160 85 56 55 45 79 99 117 116 63 147 140 354 343 9 82 172 140 143 137 102 116 107 306 250 23 37 41 77 79 267 115 246 243 171 176 288 335 34 50 45 84 117 205 292 333 327 241 237 190 180 178 161 175 190 166 105 69 78 313 305 84 152 178 162 277 270 256 198 199 215 219 218 217 217 229 239 239 240 241 238 240 240
59 98 320 352 26 129 76 54 26 41 93 77 66 112 52 87 102 11 357 25 43 65 69 100 115 107 141 147 266 203 128 55 32 105 190 228 187 204 227 164 154 153 114 111 290 244 149 104 114 268 268 248 255 271 143 174 156 134 162 168 138 123 111 123 216 267 295 237 174 117 257 269 260 204 209 219 213 221 225 218 233 248 246 246 250 247 245 245
76 139 339 353 1 124 70 61 344 24 69 316 3 70 22 73 101 20 19 18 11 51 37 46 100 84 148 185 158 154 138 139 188 194 199 232 236 212 187 159 152 136 118 156 260 251 88 76 55 290 292 306 311 332 32 55 96 117 254 153 137 148 135 149 177 184 203 240 162 102 262 266 273 238 212 228 249 263 260 236 237 252 260 257 256 257 255 251
114 164 4 11 9 176 92 94 136 70 74 69 63 33 354 83 93 44 33 354 353 112 80 48 200 100 139 129 108 149 181 143 190 216 179 197 232 200 166 166 168 152 162 192 182 170 241 102 80 358 341 343 344 351 348 340 356 205 235 186 149 114 102 120 137 108 244 230 166 150 247 256 273 329 287 261 278 280 270 255 242 246 259 264 261 261 259 257
73 97 323 15 35 70 110 148 141 132 144 100 77 26 4 54 53 60 143 85 356 155 125 46 205 111 92 81 67 54 50 93 250 262 112 216 257 293 155 175 176 174 221 214 133 108 173 169 119 101 72 291 291 283 276 272 258 250 234 203 189 137 130 154 123 100 240 232 160 173 238 257 262 312 295 275 270 273 272 270 264 253 253 260 262 264 262 259
76 53 316 356 26 53 70 82 94 108 145 121 81 3 50 72 317 286 130 102 316 148 89 22 191 94 57 62 62 354 326 2 34 115 167 240 261 289 233 180 186 192 178 158 99 80 95 206 190 170 187 205 221 238 233 184 233 266 260 237 215 173 142 126 114 172 205 178 205 224 238 269 276 269 272 273 262 260 268 273 274 268 261 261 260 261 262 258
96 97 99 12 18 38 32 17 50 84 141 132 107 113 108 91 312 319 98 154 171 125 78 48 69 88 75 91 98 272 294 345 18 131 194 228 259 292 275 184 198 203 160 143 164 100 96 282 242 194 218 232 233 250 255 218 235 250 254 247 223 196 158 150 184 213 158 117 260 242 210 251 270 270 265 264 260 260 267 270 270 269 267 266 265 265 265 263
70 142 181 101 99 100 59 49 89 86 73 84 106 119 102 89 150 186 189 159 40 74 135 61 15 30 173 154 131 169 317 350 311 251 225 228 276 328 333 231 210 203 142 114 2 116 128 259 240 182 249 258 250 260 261 246 246 245 243 243 232 203 182 193 216 211 162 201 254 255 205 240 263 273 266 261 263 269 272 271 271 275 273 268 268 269 266 264
80 116 355 25 93 148 132 93 107 93 67 67 94 111 142 149 173 214 217 58 5 328 119 175 268 259 181 169 126 139 227 156 268 264 222 192 242 327 335 257 225 51 113 128 293 141 151 256 242 170 283 277 262 261 253 240 254 257 243 237 230 215 205 211 226 215 201 234 254 264 268 266 267 269 268 270 268 266 275 281 277 275 272 268 266 266 265 263
140 145 142 63 75 96 56 49 87 87 55 48 82 119 154 157 178 217 213 136 167 286 45 193 248 228 172 170 146 184 217 186 207 246 188 162 245 218 204 224 175 53 36 115 183 224 191 277 272 97 316 292 288 306 277 221 241 264 263 249 234 234 233 228 231 223 219 247 258 264 272 273 269 263 265 272 271 267 276 276 270 265 264 266 265 262 264 263
105 122 135 113 78 3 16 38 72 93 59 10 133 163 184 195 192 175 181 197 187 202 193 187 214 195 129 158 189 231 230 188 202 225 187 173 214 198 202 219 158 122 7 138 164 134 171 279 1 51 343 283 306 3 347 313 289 278 274 262 240 230 233 225 214 202 202 231 255 267 267 266 269 267 260 261 255 257 265 264 267 266 258 256 258 260 262 261
99 90 110 107 82 344 63 66 45 86 117 233 158 166 208 220 200 160 121 229 221 214 200 175 163 148 123 211 230 235 219 192 209 223 191 181 194 187 204 206 163 155 153 147 168 338 131 141 16 38 314 274 302 351 338 330 323 287 267 251 219 198 217 239 237 215 209 215 239 252 248 257 275 289 256 262 255 254 260 257 260 265 258 248 249 255 260 260
Height
820 820 819 819 818 818 818 818 817 816 816 815 815 814 813 812 812 811 811 810 810 810 810 810 809 809 809 808 808 808 807 807 806 807 807 809 809 808 807 806 805 804 804 803 802 801 801 801 801 801 801 802 804 805 804 805 805 808 817 824 824 827 825 817 815 815 811 808 811 817 817 815 823 829 827 829 834 838 841 842 843 840 840 841 844 847 850 853
820 819 819 819 818 818 818 817 816 815 815 814 814 813 812 811 811 810 810 809 809 809 809 809 809 808 808 808 807 807 808 807 806 807 809 809 809 808 807 806 805 804 803 803 802 802 801 801 801 801 802 803 806 805 805 805 805 810 820 824 822 821 817 811 808 808 807 810 814 820 822 819 826 832 827 832 842 842 842 848 847 845 848 848 849 852 854 856
819 819 819 819 819 818 818 817 816 815 815 814 813 812 812 811 810 810 809 809 808 808 808 808 808 808 808 807 807 807 807 807 807 809 809 809 809 808 807 806 805 804 804 803 802 802 802 802 801 802 803 805 807 807 806 806 807 811 818 820 815 812 811 809 807 805 807 810 813 821 824 826 834 834 830 836 844 846 847 852 852 850 853 853 854 856 857 859
819 819 819 818 818 817 817 816 816 815 815 814 813 812 812 811 810 810 809 809 808 808 808 808 807 807 807 806 806 807 806 807 810 810 810 809 808 807 806 806 805 804 804 803 802 802 801 802 802 802 804 806 808 808 808 806 808 812 815 813 809 812 811 805 806 808 809 811 814 822 823 828 838 837 838 837 837 847 854 854 854 854 854 854 856 858 860 861
819 818 818 818 817 817 816 816 815 815 814 813 812 812 811 810 810 809 808 808 807 807 807 807 807 807 807 806 806 805 806 812 813 810 810 809 808 807 806 805 804 804 804 802 802 802 801 801 802 803 805 806 807 808 808 808 807 810 810 807 809 814 810 804 808 812 814 814 817 822 822 831 842 846 851 844 842 856 862 859 858 857 857 857 859 860 862 863
818 818 818 817 817 817 816 815 815 814 813 812 812 811 810 809 808 807 807 806 806 806 807 807 807 806 806 806 806 804 807 815 814 809 810 809 808 807 805 805 804 804 803 802 802 801 801 802 802 804 807 808 809 808 809 810 808 809 808 807 810 812 808 806 811 814 815 813 817 824 829 839 845 852 860 857 861 868 866 864 862 861 862 860 862 863 865 867
819 818 818 818 817 817 816 815 814 814 813 812 811 810 809 808 807 806 805 805 805 806 806 806 806 806 806 805 806 805 807 813 812 810 810 808 808 807 805 804 804 803 803 802 801 801 802 802 802 806 808 808 810 809 810 810 808 810 809 807 809 810 811 812 815 818 816 818 825 830 834 843 844 849 861 865 870 871 867 866 864 865 865 863 866 867 868 870
820 819 819 818 818 817 816 815 814 814 813 811 810 809 808 808 806 806 805 804 805 805 806 806 806 806 805 805 806 807 810 812 811 811 810 809 808 806 805 804 803 803 802 802 802 801 802 803 804 806 808 809 811 810 810 810 808 810 809 808 808 812 819 820 821 821 821 828 833 833 842 852 852 853 864 872 873 873 869 868 867 867 868 868 870 872 873 874
821 820 820 819 818 817 816 815 814 814 813 811 810 809 808 807 806 806 805 805 804 805 806 806 806 805 806 805 805 810 814 813 811 811 809 809 808 806 805 804 803 802 802 802 802 801 802 804 805 806 807 809 811 810 809 810 809 811 810 810 809 813 823 822 823 825 826 833 832 836 852 858 856 856 867 878 876 875 872 869 871 870 871 874 875 877 877 877
821 821 820 819 818 817 816 815 815 814 812 811 810 809 808 807 807 806 805 805 805 805 806 806 806 806 806 805 807 814 815 812 811 811 809 808 807 805 804 803 803 802 802 803 802 802 803 804 805 804 805 808 810 810 811 810 810 812 811 813 812 815 822 820 823 828 827 832 831 836 853 857 854 856 869 880 878 876 874 873 875 874 876 879 879 880 880 880
821 820 820 819 818 817 816 815 815 814 813 811 810 809 808 807 807 806 806 805 805 805 806 806 806 806 806 805 810 816 814 812 812 810 809 807 805 803 803 803 803 802 802 803 803 803 803 804 804 804 806 808 809 811 812 810 811 811 811 813 815 817 821 821 826 828 826 833 836 836 847 857 858 863 876 880 880 878 875 877 879 878 881 882 882 883 883 884
821 820 819 819 818 817 816 815 815 814 813 812 811 810 808 808 807 806 806 805 805 805 806 806 806 806 806 807 813 815 813 812 812 810 809 807 805 803 802 802 802 803 803 803 804 804 804 804 803 804 807 808 810 811 810 811 812 812 812 812 814 818 819 822 826 827 827 832 838 831 834 859 872 875 883 881 881 881 877 881 883 883 885 885 886 886 886 886
820 820 819 819 818 817 816 815 815 814 813 812 811 810 809 808 807 806 806 806 806 806 806 806 807 806 806 811 815 814 813 813 812 810 809 807 805 804 803 803 802 803 803 803 804 804 804 804 804 805 807 808 810 810 810 812 812 812 816 815 815 816 817 824 825 825 828 831 838 830 827 864 886 882 883 883 883 881 880 886 886 887 888 887 888 888 889 889
820 819 819 818 818 817 816 815 814 814 813 812 811 810 809 808 807 807 807 807 806 806 807 806 807 806 808 814 815 814 814 813 812 810 808 806 804 803 803 803 802 803 803 804 804 804 804 804 804 805 807 809 809 809 811 814 815 815 818 821 824 821 816 825 827 825 827 832 840 830 827 865 886 882 884 884 884 882 884 889 888 889 889 889 891 889 891 891
819 819 818 818 817 816 816 815 814 814 813 812 812 811 810 809 808 808 807 808 807 808 807 807 808 807 811 815 815 815 814 812 812 810 809 806 804 804 804 803 803 804 804 804 804 805 805 804 805 809 810 811 811 812 814 815 818 822 820 821 830 827 819 825 831 831 828 833 842 830 835 871 883 882 885 884 885 884 885 891 890 891 891 891 892 891 892 892
819 818 818 817 817 816 815 814 814 813 813 813 812 811 810 809 809 809 809 809 808 808 808 808 809 808 813 817 815 815 814 813 813 811 810 807 805 805 804 804 804 804 804 805 805 805 805 805 811 816 814 816 821 820 817 817 821 826 825 823 829 829 824 826 831 839 834 830 839 837 849 878 881 881 886 885 888 886 886 892 891 891 892 892 893 893 894 893
819 818 818 817 816 815 815 814 813 813 813 813 813 812 811 810 810 810 810 809 809 809 808 810 809 809 814 818 817 817 816 816 814 812 810 807 807 806 804 804 804 804 805 804 805 805 806 810 816 820 822 828 832 825 817 823 826 829 832 830 833 835 832 828 826 839 842 833 842 852 864 880 880 883 887 886 889 887 888 891 892 893 893 893 894 894 895 895
818 818 817 816 816 815 814 814 813 813 813 813 813 813 812 812 812 811 811 809 809 809 809 811 810 814 821 820 821 822 819 817 816 813 810 808 808 807 806 805 805 805 806 806 807 809 810 815 818 820 828 834 836 831 824 832 836 834 837 834 836 838 835 834 832 843 848 844 854 862 870 885 886 885 887 888 889 888 890 891 892 894 893 894 895 895 895 895
818 817 817 816 815 814 814 813 813 813 813 813 813 813 813 813 812 812 812 810 813 816 819 821 819 824 829 825 824 823 819 818 817 813 811 809 808 808 808 807 808 807 809 812 813 817 818 820 825 830 838 839 841 844 836 837 839 837 841 839 838 838 835 840 845 853 854 855 868 870 872 887 889 887 889 889 890 889 890 893 893 893 894 895 894 895 896 895
818 817 816 816 815 814 814 813 813 812 812 812 813 813 814 815 816 819 819 817 822 826 828 828 827 828 829 826 825 822 819 818 817 816 812 810 809 809 809 809 810 811 817 821 820 825 828 830 840 845 847 845 846 851 846 844 844 840 841 840 843 843 839 843 850 858 857 858 878 882 881 889 888 889 890 888 891 891 891 892 893 894 893 894 895 894 895 894
817 816 816 815 815 814 814 813 813 812 812 812 812 813 815 816 818 823 825 826 829 829 828 829 828 828 828 828 826 824 823 821 818 817 815 813 811 810 814 816 815 818 827 831 828 829 830 836 848 850 851 850 850 853 849 845 844 841 840 838 843 844 843 849 853 860 858 856 878 887 883 890 890 889 890 889 890 889 891 892 891 893 893 893 894 893 894 894
817 817 816 815 815 814 814 813 813 812 812 812 812 813 815 815 816 818 821 827 831 829 828 829 828 829 829 828 827 827 827 824 820 818 817 816 813 814 821 824 824 828 831 831 829 830 833 840 848 852 854 852 851 852 846 843 842 842 840 837 840 842 845 850 853 862 860 855 875 887 884 889 891 889 889 889 889 888 889 890 889 891 892 892 893 892 893 893
817 817 816 815 815 814 814 813 813 813 812 812 812 814 815 816 817 817 818 825 831 831 830 830 830 831 830 829 829 828 828 831 829 825 822 819 819 823 826 827 831 834 835 832 831 835 840 844 851 856 854 846 845 849 846 841 842 844 841 838 841 845 845 843 848 863 865 859 872 883 887 891 890 889 890 888 888 889 888 889 889 889 889 889 889 890 890 891
818 817 816 815 815 814 814 814 813 813 812 813 813 814 816 816 817 818 820 827 832 831 831 831 832 832 832 831 830 829 831 834 835 832 828 825 826 827 829 832 834 838 845 844 839 842 846 850 856 854 849 845 842 847 849 844 843 846 847 843 844 848 848 845 851 861 865 868 874 875 878 885 890 888 887 888 889 888 888 889 889 889 888 889 888 889 888 888
818 817 816 816 814 814 814 814 814 814 813 814 814 815 816 816 818 818 820 829 834 832 832 832 832 832 832 832 830 831 832 833 837 836 832 831 830 829 833 837 836 839 849 849 843 845 849 854 856 849 846 848 845 847 854 852 845 845 848 847 847 850 851 851 853 854 854 859 868 866 857 866 887 890 884 887 888 887 888 888 888 888 887 888 887 887 887 886
818 817 817 815 814 814 814 814 814 814 814 815 815 817 817 817 819 818 821 832 838 838 834 832 833 833 832 834 833 832 833 836 838 837 834 833 833 832 834 840 840 842 848 848 846 848 851 854 855 851 850 850 849 850 855 857 850 843 845 850 853 855 854 853 854 852 848 851 862 864 852 856 878 885 882 886 887 885 887 887 886 886 885 885 885 884 884 885
818 818 817 815 815 814 814 814 814 814 815 815 816 817 817 818 819 818 825 837 843 842 839 835 835 835 835 837 836 833 839 841 837 837 837 835 834 833 836 843 844 847 853 849 846 851 853 851 852 852 851 850 852 852 854 860 854 841 844 853 855 855 853 855 855 852 851 854 863 867 862 860 862 870 880 884 885 884 884 884 882 881 882 882 882 882 882 882
818 818 817 816 815 814 814 814 814 815 815 816 817 817 818 820 819 820 830 843 847 843 842 840 836 836 838 840 838 839 844 845 841 841 841 837 837 835 837 846 847 851 857 848 845 856 856 853 854 853 852 852 854 855 857 861 852 842 849 858 857 855 855 856 855 854 856 854 854 860 868 863 852 866 886 885 883 883 877 877 877 876 879 879 879 879 878 879
819 818 817 816 815 814 814 814 814 815 815 817 817 818 819 819 820 826 836 846 848 844 845 842 837 841 845 843 843 847 847 846 848 847 843 841 840 838 843 849 848 850 853 847 848 857 857 857 860 856 856 856 854 856 858 858 852 847 854 859 857 858 858 857 856 854 855 852 850 855 864 860 850 865 887 885 880 878 868 868 870 871 874 874 875 876 875 877
819 819 817 815 814 815 814 814 815 815 816 817 817 819 820 820 826 835 842 847 849 848 848 844 845 852 852 846 847 853 851 851 855 851 846 848 845 844 850 852 851 851 852 851 853 859 859 860 862 859 859 860 856 858 861 860 857 853 854 851 849 855 857 857 863 859 850 848 852 855 858 859 852 856 874 875 867 865 862 863 865 867 870 870 871 872 872 873
820 819 818 816 815 815 814 815 815 815 817 817 819 820 820 825 834 839 846 852 852 851 850 851 856 859 858 856 855 857 856 856 859 856 852 856 854 851 853 855 856 851 850 854 855 859 859 856 860 861 861 863 858 857 860 862 861 854 851 846 840 849 851 847 854 855 849 846 851 857 856 858 854 845 854 862 859 859 860 859 860 862 865 867 867 868 869 870
820 820 818 817 816 815 814 815 815 816 817 818 820 821 822 829 839 847 852 853 853 855 858 859 861 861 862 864 862 863 862 860 864 865 865 868 869 869 869 873 873 857 853 864 864 860 859 857 862 861 862 864 856 853 853 855 856 852 853 852 848 856 860 854 857 863 861 851 852 860 856 854 852 838 842 854 856 859 859 857 858 859 860 862 863 864 864 866
821 820 819 817 816 815 815 815 815 816 818 819 820 822 825 829 843 860 862 854 856 863 866 865 866 866 864 861 863 867 866 864 866 869 872 873 874 878 879 883 884 868 861 871 871 863 857 858 863 858 858 862 858 858 856 854 856 855 859 861 858 866 872 872 878 880 868 852 854 866 862 852 844 836 844 851 851 856 858 858 859 858 858 858 858 860 859 861
821 820 819 818 816 816 815 815 816 818 819 819 821 824 828 835 853 867 863 859 866 868 868 870 868 865 864 863 867 870 866 866 870 870 870 871 872 877 878 879 882 879 873 872 877 876 864 858 862 859 860 863 861 864 865 862 862 864 869 866 861 869 872 872 876 872 865 861 862 863 856 847 837 837 850 853 853 858 856 857 859 857 857 855 854 857 856 857
821 820 820 818 817 817 817 817 817 818 818 820 824 829 834 847 863 866 861 866 872 868 869 874 867 858 861 866 871 872 867 866 873 874 874 877 880 883 884 882 884 887 880 871 879 886 874 864 864 864 866 866 862 866 869 866 862 867 873 865 862 871 871 874 881 879 882 881 872 860 849 849 846 846 857 857 854 858 854 854 856 853 854 855 853 855 854 853
821 820 819 818 818 818 817 818 818 819 821 820 824 838 850 860 866 865 866 871 873 872 869 867 864 859 860 865 868 870 869 868 872 875 877 884 888 887 888 887 888 890 883 877 882 883 873 866 865 865 866 866 865 866 869 867 860 864 869 865 870 878 872 872 881 891 899 886 871 865 852 848 848 843 854 861 855 854 854 852 852 851 852 854 852 851 850 850
820 820 820 820 819 818 818 819 819 820 822 821 828 850 867 870 869 871 875 874 876 879 869 860 864 867 866 867 868 869 869 868 869 872 877 884 886 886 889 888 888 891 890 886 885 885 880 869 865 868 863 863 871 869 866 871 866 862 865 867 874 877 875 877 877 883 893 880 866 867 861 855 849 838 845 859 854 850 851 850 850 851 851 852 850 847 846 846
820 820 820 821 820 820 819 819 820 821 822 830 847 865 872 872 873 877 878 877 878 876 867 862 868 873 874 872 871 875 873 867 869 875 878 881 881 886 890 888 887 891 894 890 883 887 889 871 862 870 866 864 872 868 863 869 869 865 866 871 873 870 871 879 879 875 882 884 875 873 876 870 856 841 835 839 840 837 842 848 849 847 847 848 846 844 843 843
820 820 822 824 822 822 821 820 822 821 820 836 859 868 870 873 876 878 878 878 877 872 867 869 873 873 876 877 875 879 878 872 875 880 879 879 881 885 890 890 886 887 892 892 884 887 892 876 862 867 871 869 867 865 866 868 869 867 867 872 875 875 877 881 885 883 881 885 884 877 868 852 842 841 830 823 827 828 833 844 845 842 842 842 842 841 840 840
820 821 824 826 822 823 823 820 823 827 832 850 866 868 871 873 874 878 880 878 876 871 869 874 876 872 875 881 881 881 882 879 880 880 879 883 883 883 889 892 888 886 889 891 888 888 890 883 870 864 870 871 863 865 870 870 871 871 868 873 875 878 885 885 889 895 887 882 889 888 866 835 830 839 828 819 825 827 831 837 837 839 839 837 838 837 836 836
820 822 825 825 823 823 822 823 836 849 854 862 869 869 872 872 871 877 881 880 877 874 873 875 876 874 875 879 881 882 882 880 881 882 882 884 883 881 888 892 891 891 888 884 887 888 886 885 880 871 865 863 862 870 876 872 874 873 869 873 874 877 884 882 883 899 902 891 890 893 873 836 825 833 827 821 823 824 831 835 833 835 835 834 835 834 833 833
821 825 828 826 824 823 823 835 857 865 862 864 868 869 872 871 872 875 877 879 877 873 874 875 876 878 878 878 880 882 881 879 882 883 883 885 883 881 888 893 893 894 889 884 888 892 889 889 886 875 867 866 868 876 880 877 877 878 876 879 882 883 883 878 876 887 901 902 900 905 886 839 820 832 830 825 825 825 832 837 835 833 832 832 832 830 830 830
825 828 828 826 825 824 826 843 863 867 866 871 873 873 874 873 872 874 875 876 875 872 873 874 877 878 878 880 881 881 880 880 881 882 883 885 885 883 889 893 893 894 891 887 889 891 890 889 884 873 868 871 873 877 881 881 878 876 878 883 884 881 880 881 883 886 890 892 892 901 885 833 816 834 835 830 833 832 834 837 835 833 831 830 830 828 828 827
829 830 829 827 823 821 827 841 857 866 871 872 870 871 874 874 873 874 874 874 875 874 872 874 879 878 879 883 881 880 882 879 879 883 884 884 884 885 890 891 890 890 888 885 887 888 885 884 883 877 870 865 864 868 872 874 875 871 873 882 883 884 888 890 896 899 891 881 880 884 864 825 818 835 833 830 834 831 831 833 833 834 832 828 827 826 825 825
829 830 831 830 825 826 837 849 854 861 868 867 867 872 873 873 876 877 875 876 879 878 874 875 880 879 882 884 881 882 885 879 878 883 886 886 885 885 889 890 890 888 888 890 891 888 885 886 884 877 874 867 860 860 861 864 872 872 873 881 883 885 886 882 889 895 884 882 887 874 843 817 817 829 828 827 831 828 828 830 830 831 829 827 827 824 823 823
827 830 834 834 833 837 850 859 857 857 863 862 865 874 873 870 876 880 877 876 879 880 877 878 881 880 880 882 879 880 884 884 883 882 883 883 881 884 889 890 889 889 890 894 894 891 891 892 887 877 872 868 861 858 862 866 870 869 870 877 880 885 887 882 886 886 878 884 883 858 838 825 816 821 824 823 826 826 826 826 826 827 825 824 824 821 820 820
828 835 841 839 840 846 852 859 859 858 862 861 863 872 873 871 875 877 876 877 879 880 879 880 882 877 876 879 878 877 882 887 886 882 883 885 883 885 889 889 890 890 891 895 895 894 890 884 885 884 875 868 866 863 866 871 871 866 867 869 871 882 890 884 878 873 874 879 861 838 842 840 821 817 822 821 822 824 823 824 823 822 822 821 819 818 818 816
832 841 850 844 843 851 853 856 861 862 864 866 870 874 873 872 874 872 873 877 879 879 877 876 880 879 878 880 877 876 880 880 880 881 885 888 887 884 883 886 890 889 891 895 895 895 888 879 884 890 878 871 874 871 869 873 874 870 870 868 866 876 884 878 869 869 872 864 841 829 839 838 822 819 820 818 819 820 819 820 820 820 819 818 817 816 815 813
838 842 851 849 849 858 861 862 864 862 863 867 870 872 871 869 870 873 878 877 874 878 877 871 874 879 882 883 879 877 877 873 872 878 882 885 888 885 880 880 885 890 891 890 893 897 888 879 888 895 882 871 872 872 873 877 875 869 868 867 865 868 873 871 865 866 867 857 841 837 840 833 822 819 816 814 817 819 819 819 819 818 816 814 814 814 811 810
834 835 844 848 853 863 866 866 862 856 861 868 865 868 873 869 867 874 880 875 868 873 877 871 872 879 883 884 881 876 875 873 871 876 881 882 884 886 882 875 879 889 889 886 893 896 886 881 892 896 882 866 862 866 872 875 875 870 863 862 863 862 864 869 869 868 869 862 849 847 849 837 820 814 814 815 816 817 817 815 814 812 811 810 811 810 808 807
829 831 835 838 850 864 863 864 865 855 856 863 861 866 873 868 867 871 874 876 873 870 873 872 873 880 884 884 881 874 874 877 874 875 879 879 877 880 880 877 880 883 884 888 892 891 886 885 890 891 880 864 861 865 866 869 872 867 853 846 851 857 857 857 861 862 858 850 845 849 849 829 810 809 813 814 814 815 812 811 809 807 806 807 806 805 804 803
829 833 834 833 847 864 863 863 866 857 854 862 864 867 869 866 871 872 866 873 879 874 875 876 875 878 878 876 875 873 875 878 877 877 880 879 879 880 880 881 883 880 881 889 893 895 893 885 883 888 879 864 866 871 872 873 863 841 826 823 830 842 847 845 847 850 846 841 839 835 824 809 804 811 813 810 811 811 808 806 804 801 801 802 802 801 800 798